Location: Iesi
(43.5167°N, 13.2333°E)
Time: 17:06:26
(UTC+00:00)

NOSS 3-3 (C) - Pass Details

Date: 08 August 2020
Orbit: 826 x 1387 km, 63.4° (Epoch: 22 September)

Event Time Altitude Azimuth Distance (km) Brightness Sun altitude
Rises 21:01:15 0° 323° (NW) 3,990 8.7 -23.5°
Reaches altitude 10° 21:03:50 10° 324° (NW) 3,102 7.7 -23.8°
Maximum altitude 21:11:27 86° 53° (NE) 1,293 4.5 -24.5°
Enters shadow 21:14:25 45° 140° (SE) 1,733 4.8 -24.8°
